Location: Nairn
(57.5833°N, 3.8667°W)
Time: 03:05:06
(UTC+00:00)

Vanguard 1 Rocket - Pass Details

Date: 02 December 2020
Orbit: 655 x 4221 km, 34.3° (Epoch: 20 January)

Event Time Altitude Azimuth Distance (km) Brightness Sun altitude
Exits shadow 06:44:28 - 263° (W) 7,088 11.4 -13.4°
Reaches altitude 10° 06:47:37 10° 257° (WSW) 6,531 11.2 -13.0°
Maximum altitude 06:57:50 17° 226° (SW) 5,028 10.9 -11.7°
Drops below altitude 10° 07:05:33 10° 192° (SSW) 4,723 11.2 -10.8°
Sets 07:10:19 0° 173° (S) 5,114 11.7 -10.2°
